Location: *
(50.9167°S, 179.4000°W)
Time: 21:33:40
(UTC+00:00)

H-2A R/B - Pass Details

Date: 03 March 2024
Orbit: 436 x 459 km, 97.4° (Epoch: 01 March)

Event Time Altitude Azimuth Distance (km) Brightness Sun altitude
Exits shadow 16:01:00 - 0° (N) 1,769 5.1 -14.2°
Reaches altitude 10° 16:01:21 10° 359° (N) 1,620 4.9 -14.2°
Maximum altitude 16:04:46 53° 281° (W) 583 2.6 -13.7°
Drops below altitude 10° 16:08:15 10° 202° (SSW) 1,647 5.3 -13.2°
Sets 16:10:22 0° 197° (SSW) 2,532 6.4 -12.9°
